Temperature
23 21 21 21 21 22 23 23 23 22 22 19 18 17 17 17 16 16 15 15 15 15 16 16 16 17 17 17 17 17 17 17 17 17 16 16 16 16 16 16 16 16 16 17
21 22 23 23 23 22 22 23 23 22 21 19 18 17 17 16 16 15 15 15 15 16 16 16 16 16 17 17 17 17 17 16 16 16 16 16 15 16 16 16 16 16 16 16
23 23 24 25 25 24 24 23 24 23 21 19 18 17 17 17 16 15 15 15 15 16 16 16 16 17 17 17 17 17 17 16 16 16 16 16 16 16 16 16 16 16 16 16
23 24 24 24 25 25 24 24 24 23 21 19 20 18 17 16 16 15 15 15 15 16 16 16 16 17 17 17 17 17 17 17 16 16 16 16 16 15 15 15 16 16 16 16
23 24 24 24 25 25 24 23 22 22 20 18 18 17 17 16 16 15 15 15 15 16 16 16 16 17 17 17 17 17 17 17 17 16 16 16 16 15 15 15 15 15 15 16
22 23 23 24 24 24 23 21 20 17 17 19 18 18 17 15 16 16 15 15 15 15 16 16 16 16 16 16 16 16 16 17 16 16 16 16 15 15 15 15 15 15 15 15
21 22 23 23 24 23 21 20 19 19 18 18 17 17 17 17 16 16 15 15 15 15 15 16 16 16 16 16 16 16 16 16 16 16 16 15 15 15 15 14 14 14 14 14
21 21 22 23 23 22 21 20 19 19 19 18 17 17 17 16 16 16 16 15 15 15 15 15 15 15 15 15 15 15 15 15 15 15 15 15 14 14 14 14 13 13 13 13
21 21 22 23 22 22 21 18 18 17 18 17 17 17 17 16 16 15 15 15 15 15 15 15 15 15 15 15 15 14 14 14 14 14 14 14 14 13 13 13 13 12 12 12
21 21 21 21 22 20 20 17 16 17 18 18 18 17 16 16 15 14 14 15 15 15 15 15 15 15 15 14 14 14 14 13 13 13 13 13 13 13 13 12 12 12 12 11
20 20 20 20 19 19 19 18 15 14 15 17 17 16 15 14 14 14 14 15 15 15 15 15 15 15 14 14 14 13 13 13 13 13 13 13 12 12 12 12 12 11 11 11
18 17 18 19 19 19 19 18 16 17 16 15 15 15 14 13 13 14 14 15 15 15 15 15 14 14 14 13 13 13 13 13 13 12 12 12 12 12 12 12 12 11 11 11
18 17 17 18 18 18 18 17 15 14 13 14 15 15 14 13 14 14 15 15 15 15 14 14 13 13 13 13 13 12 12 12 12 12 12 12 12 12 12 12 11 11 11 11
17 16 17 18 18 18 18 18 17 15 14 15 15 15 14 13 13 13 14 15 14 14 14 13 13 12 12 12 12 12 12 12 11 11 11 11 11 11 11 11 11 11 11 11
17 17 18 18 18 18 18 18 17 17 16 15 15 15 14 13 13 14 14 14 13 13 13 12 12 12 11 11 11 11 11 11 10 10 10 11 11 11 11 11 11 11 11 11
16 17 18 18 18 18 17 17 17 17 17 16 15 14 13 14 13 13 13 13 13 12 12 12 11 11 10 10 10 9 9 9 9 9 9 9 9 9 10 10 10 10 10 10
15 16 17 17 17 17 17 17 17 16 15 15 14 13 13 12 12 13 13 12 12 12 11 11 10 10 9 9 8 8 8 8 7 7 7 7 8 8 8 9 9 9 9 10
15 14 13 15 17 18 16 17 17 16 15 14 13 13 12 12 13 13 13 12 11 11 10 10 9 8 8 8 7 7 6 6 6 6 6 6 6 6 6 7 7 8 8 8
14 15 14 14 16 17 17 17 16 15 13 13 13 12 12 13 11 11 12 11 10 10 9 9 8 7 7 7 6 6 6 6 5 5 5 5 5 5 5 6 6 6 7 7
14 13 14 15 17 17 16 17 17 15 13 13 13 11 12 10 8 9 11 10 10 9 8 8 7 7 7 6 6 5 5 5 5 5 5 5 5 5 5 5 5 5 6 6
17 15 15 15 16 15 16 16 16 15 14 14 13 13 12 10 10 11 10 10 9 8 8 7 7 6 6 6 5 5 5 5 5 5 5 5 5 5 5 5 5 5 5 5
16 15 14 13 15 16 16 15 14 14 15 14 14 13 12 11 11 10 10 9 8 8 7 7 6 6 6 6 5 5 5 5 5 5 5 5 5 5 4 4 4 5 5 5
14 14 13 13 14 15 16 16 16 15 14 14 13 12 12 11 10 9 9 8 8 7 7 6 6 6 6 6 5 5 5 5 5 5 5 5 5 5 4 4 4 4 4 4
15 12 12 13 13 15 16 15 15 14 14 13 12 12 11 10 9 9 8 8 7 7 6 6 5 5 5 6 5 5 5 5 5 5 5 5 5 5 4 4 4 4 4 4
15 13 13 14 14 15 15 15 15 14 13 13 12 11 10 10 9 8 8 7 7 6 6 6 5 5 5 5 5 5 5 5 5 5 5 5 5 4 4 4 4 4 4 4
13 13 13 14 16 14 16 16 15 14 13 12 11 11 10 9 8 8 7 7 7 6 6 6 6 6 5 5 6 6 5 5 5 5 5 5 5 5 5 5 5 5 4 5
Wind_Speed
4 4 3 7 8 7 3 2 2 1 3 8 11 10 10 10 11 11 10 9 9 8 6 7 6 5 5 3 3 2 3 3 2 1 2 2 2 2 2 2 2 2 4 4
5 3 7 5 4 5 4 2 1 2 5 6 8 9 8 9 8 7 8 8 7 6 6 6 6 6 6 4 4 3 3 3 3 2 1 1 1 2 2 2 2 3 3 4
3 5 4 2 2 2 3 4 4 4 3 4 5 5 4 5 6 7 7 6 5 5 6 5 5 4 3 3 3 3 3 2 2 2 1 1 1 1 2 3 3 3 4 4
3 4 3 2 0 2 2 3 3 4 5 1 1 1 1 1 3 4 4 4 4 3 3 3 3 3 2 1 0 2 2 2 2 2 2 2 1 1 2 2 3 4 3 3
5 4 3 3 2 1 2 4 4 3 5 4 5 4 3 1 2 2 2 1 2 2 2 2 3 3 3 3 2 0 1 0 0 1 2 3 2 0 1 1 3 4 4 4
5 4 2 3 3 1 3 6 6 5 5 3 2 2 3 3 4 3 3 2 2 3 3 4 4 5 5 4 3 2 2 2 2 2 2 3 3 2 1 1 2 2 2 3
8 7 5 2 4 5 6 6 5 6 5 3 2 1 4 3 2 3 3 3 3 4 4 5 6 6 7 7 6 5 5 5 4 4 4 4 4 4 3 2 2 1 1 2
4 7 6 5 2 1 2 6 6 3 4 4 3 2 4 1 1 2 1 2 3 4 5 7 8 8 8 9 8 7 7 7 6 6 6 5 6 4 4 5 4 4 3 4
1 5 5 5 4 3 3 4 4 6 1 1 4 4 4 2 2 2 1 1 3 5 6 7 8 8 8 9 9 8 8 9 9 8 7 7 7 7 7 6 5 5 5 5
3 4 6 6 7 8 6 6 5 4 2 2 5 3 4 7 6 3 2 2 4 5 6 7 7 7 7 7 8 8 9 10 10 9 9 8 8 8 8 6 7 7 7 6
3 2 6 6 7 7 6 5 6 4 4 3 3 3 4 5 3 3 3 3 5 6 6 7 6 6 7 7 8 8 9 10 10 11 10 10 10 9 8 8 9 9 8 8
3 4 2 4 4 2 4 4 3 3 1 2 2 4 4 2 3 3 3 5 6 6 7 7 7 7 8 8 9 9 10 10 12 12 11 11 11 10 10 11 12 10 10 9
5 5 4 7 7 7 6 5 5 5 5 2 0 5 1 3 4 3 5 7 8 8 8 7 7 8 9 10 10 11 11 12 12 11 11 12 12 12 12 13 12 11 11 11
5 5 4 3 4 2 4 5 4 5 3 1 4 7 4 4 5 7 8 9 9 9 9 9 10 11 11 11 11 11 12 12 12 11 11 12 13 14 13 12 12 11 11 11
5 5 2 0 1 3 4 4 4 4 3 4 7 7 7 6 7 8 9 10 10 11 11 11 11 11 11 11 11 11 12 12 12 11 12 13 14 13 12 12 12 12 11 12
4 5 3 2 3 5 4 4 3 1 2 5 6 7 6 6 6 8 10 11 11 11 12 12 12 11 11 11 11 11 11 11 10 11 13 13 13 12 13 13 12 12 11 11
3 5 3 2 2 2 2 2 2 4 5 5 7 7 6 8 9 9 10 11 11 12 12 12 11 12 12 12 12 12 12 12 11 12 13 12 12 13 13 13 12 11 11 11
6 5 4 2 2 3 6 4 4 5 7 6 7 7 8 11 10 10 10 10 11 11 11 12 11 11 11 12 12 12 12 12 13 13 13 13 12 13 12 12 12 11 10 9
4 7 4 3 1 5 3 3 3 4 7 6 6 8 8 9 8 7 9 7 9 10 11 11 11 13 12 13 13 13 13 13 14 14 13 13 12 13 13 12 12 11 10 10
7 6 6 3 1 5 6 3 1 1 6 5 5 8 8 7 7 8 7 8 10 11 10 11 12 13 13 13 13 13 14 14 15 15 14 14 13 13 13 12 12 11 10 11
3 5 4 3 4 7 5 1 2 0 7 3 5 7 7 6 8 9 11 10 9 11 13 13 13 13 13 14 13 14 15 15 15 15 15 14 13 13 13 12 11 11 10 9
5 4 3 4 2 6 4 4 4 8 4 4 5 6 7 9 10 10 10 10 11 12 12 12 12 14 14 13 13 15 15 15 15 14 15 14 13 12 11 10 10 10 9 9
6 7 6 8 7 5 4 7 5 5 4 5 5 7 7 7 8 9 9 10 11 12 12 13 13 15 14 13 12 15 16 15 15 14 14 13 13 11 10 10 9 8 7 7
3 4 4 4 7 6 6 5 3 4 5 5 6 7 6 7 9 10 10 10 11 11 13 13 14 15 16 15 14 14 15 14 14 14 13 12 11 10 9 7 7 7 6 6
6 6 4 5 6 4 6 7 6 4 4 5 5 4 6 7 8 8 9 11 11 12 11 12 14 15 17 16 16 15 14 14 14 13 12 11 9 9 8 7 6 6 6 6
6 8 8 8 8 7 7 6 6 5 5 5 5 5 6 5 8 8 9 10 11 13 13 14 15 16 17 16 16 15 14 13 13 11 11 9 8 7 7 6 5 5 5 6
Wind_Direction
35 58 281 250 212 215 234 257 296 281 126 75 80 69 40 33 51 61 63 70 75 72 63 61 57 63 74 61 41 20 359 342 341 309 278 274 302 318 325 303 300 275 248 232
25 312 261 262 213 195 203 225 220 97 104 105 96 74 49 38 40 45 52 52 58 58 48 44 43 42 47 45 37 35 20 351 349 336 299 278 253 274 280 303 304 274 259 246
208 251 294 329 68 127 188 186 204 167 99 95 112 58 34 37 36 43 46 48 48 54 42 25 29 37 42 44 43 58 36 20 360 350 351 352 352 343 354 333 318 306 285 259
273 282 330 349 37 98 290 255 211 160 133 146 136 175 282 17 12 21 21 27 30 34 35 8 352 351 357 332 146 91 69 45 18 29 66 64 49 3 335 323 319 316 313 300
298 315 328 313 274 210 224 52 68 90 121 81 37 108 276 247 274 268 282 304 328 324 328 307 298 295 297 289 275 163 121 81 51 90 109 103 97 201 287 326 353 351 345 342
272 294 262 270 314 342 107 73 54 51 69 54 330 123 253 232 223 212 228 251 271 292 302 302 295 291 290 284 279 268 251 244 235 191 169 157 163 177 163 21 8 352 336 336
340 335 332 330 358 16 60 73 25 3 8 272 303 143 252 249 200 186 209 235 251 267 277 282 279 278 276 274 269 263 255 254 247 233 221 207 200 200 201 212 220 254 292 296
359 323 333 357 6 324 58 120 147 208 240 286 351 287 277 299 121 113 155 250 257 262 263 265 268 270 272 273 270 264 260 261 257 246 241 235 224 217 220 222 220 225 232 248
277 289 324 5 8 71 73 67 130 130 121 335 313 309 333 55 31 32 3 270 267 268 269 270 272 273 273 275 274 269 266 265 263 257 254 252 243 232 229 230 229 233 238 247
166 285 322 329 26 29 79 124 80 89 109 317 320 332 325 335 342 354 5 336 301 295 291 285 284 283 280 275 273 272 262 260 264 263 258 256 250 245 241 237 237 237 238 240
107 89 336 22 33 351 12 47 83 92 123 143 295 301 340 319 337 8 4 339 319 307 298 293 292 291 286 284 279 276 272 269 268 265 260 258 256 251 245 242 243 240 238 233
95 101 14 328 316 336 60 55 107 108 71 124 195 272 336 26 45 48 359 321 308 298 291 289 293 296 293 286 281 276 271 266 263 262 261 260 261 256 248 245 245 240 238 237
110 83 38 356 349 7 35 38 81 101 99 110 250 273 348 21 13 342 312 301 298 297 294 296 297 294 289 285 281 278 273 268 267 265 263 263 264 261 255 251 247 242 238 238
101 82 131 187 252 305 30 25 58 86 92 267 243 262 280 316 312 305 300 295 294 294 291 291 291 289 287 285 285 283 282 279 278 275 270 267 264 260 256 254 250 245 239 237
85 87 72 30 20 103 80 57 66 92 162 213 261 263 261 262 277 283 286 291 295 295 293 291 290 290 289 289 288 286 285 285 284 281 277 272 268 265 262 259 254 249 241 239
69 110 95 47 67 87 72 35 52 65 258 256 271 272 254 276 286 285 286 289 291 290 291 292 293 294 292 291 290 290 288 286 285 283 281 279 276 273 269 265 260 254 248 241
85 118 117 213 264 9 285 235 237 254 242 235 249 259 290 295 287 280 284 290 289 289 292 294 294 291 291 290 290 290 288 287 285 282 282 280 279 278 275 273 267 257 251 246
125 105 115 121 72 259 250 231 222 243 248 228 239 263 278 270 276 278 278 280 284 289 293 294 293 292 291 290 291 290 291 290 288 287 286 284 282 279 275 271 268 263 257 249
125 128 113 111 228 286 266 235 217 244 270 220 238 268 278 293 315 292 277 278 281 288 290 290 290 293 293 295 295 297 297 295 293 291 288 286 282 281 278 272 268 265 260 255
61 84 108 120 192 256 248 238 285 181 287 229 237 273 288 318 321 293 293 306 300 297 295 294 295 297 299 298 299 300 300 298 296 293 290 286 280 276 274 270 268 263 258 254
40 47 96 154 229 264 249 256 70 207 272 251 246 269 283 268 252 275 300 301 292 292 295 297 300 302 301 302 303 303 302 300 298 296 293 289 282 275 271 268 264 260 254 251
174 160 180 155 214 270 213 147 186 226 252 266 269 272 273 270 277 289 297 297 300 301 302 303 305 306 306 305 305 306 306 305 303 300 297 293 286 281 280 267 264 260 250 245
191 190 189 188 214 241 219 208 218 191 229 259 262 275 281 284 288 295 294 296 300 302 305 308 308 310 311 310 308 308 309 309 308 305 301 299 294 285 279 273 268 263 247 238
241 144 149 234 259 239 229 232 234 210 229 259 269 281 281 282 288 295 296 299 305 306 311 311 314 317 318 317 315 310 310 311 311 308 307 305 301 295 288 276 265 258 246 230
228 169 181 243 266 262 252 234 230 238 252 274 286 279 279 282 290 291 298 304 308 312 312 313 318 319 318 319 318 316 315 315 315 313 311 311 307 302 298 289 270 259 247 232
199 178 177 219 216 196 236 229 206 220 247 265 279 291 294 284 285 294 300 303 308 314 317 320 321 321 320 319 318 318 319 319 318 318 317 316 312 308 305 301 297 269 252 250
Height
1485 1490 1494 1491 1489 1490 1491 1495 1498 1494 1491 1496 1502 1504 1503 1500 1497 1496 1496 1495 1495 1496 1497 1497 1497 1498 1498 1498 1499 1498 1499 1498 1496 1494 1493 1491 1489 1488 1488 1488 1488 1490 1494 1497
1490 1492 1484 1481 1482 1487 1491 1495 1495 1494 1493 1497 1504 1506 1505 1504 1502 1501 1500 1499 1498 1498 1498 1498 1499 1498 1498 1498 1499 1498 1497 1497 1495 1493 1492 1490 1488 1488 1488 1488 1489 1491 1493 1496
1491 1486 1479 1480 1481 1485 1488 1491 1490 1493 1495 1498 1503 1510 1509 1507 1506 1505 1503 1502 1501 1501 1501 1501 1501 1500 1500 1499 1498 1497 1496 1495 1494 1493 1491 1490 1489 1489 1488 1488 1489 1490 1491 1492
1486 1481 1481 1481 1482 1481 1489 1481 1482 1487 1498 1508 1504 1519 1513 1510 1509 1507 1506 1504 1504 1503 1502 1503 1502 1502 1500 1500 1499 1497 1496 1495 1494 1493 1491 1490 1489 1488 1487 1486 1486 1487 1488 1488
1488 1482 1482 1483 1480 1478 1481 1480 1484 1489 1497 1509 1510 1518 1518 1511 1511 1509 1507 1506 1505 1505 1504 1504 1504 1503 1502 1501 1499 1497 1496 1495 1493 1492 1491 1489 1487 1486 1485 1484 1484 1483 1484 1484
1485 1481 1480 1480 1477 1477 1478 1484 1491 1499 1506 1518 1515 1517 1519 1513 1509 1508 1508 1507 1507 1506 1505 1505 1504 1504 1502 1501 1499 1497 1496 1494 1492 1491 1489 1487 1486 1484 1482 1481 1480 1480 1479 1479
1492 1484 1480 1479 1480 1480 1483 1497 1516 1518 1526 1523 1514 1517 1517 1506 1505 1506 1507 1507 1507 1507 1506 1505 1505 1503 1502 1500 1499 1497 1495 1493 1491 1489 1487 1485 1483 1481 1479 1477 1476 1475 1474 1474
1504 1502 1485 1481 1483 1486 1488 1496 1518 1527 1529 1524 1517 1518 1512 1505 1505 1506 1506 1507 1507 1507 1506 1505 1504 1502 1501 1499 1497 1495 1492 1490 1488 1486 1484 1482 1479 1477 1475 1474 1472 1470 1469 1468
1503 1502 1486 1483 1483 1484 1491 1501 1502 1517 1521 1527 1521 1514 1507 1505 1505 1506 1506 1506 1506 1506 1505 1504 1502 1500 1498 1496 1494 1492 1489 1487 1485 1482 1480 1478 1475 1473 1471 1469 1468 1466 1465 1464
1496 1503 1493 1487 1485 1487 1491 1499 1510 1519 1527 1531 1523 1520 1521 1511 1509 1507 1507 1506 1505 1504 1503 1501 1499 1497 1494 1492 1490 1487 1485 1482 1480 1478 1475 1473 1470 1468 1466 1464 1463 1462 1461 1459
1494 1505 1503 1496 1500 1502 1499 1502 1513 1522 1523 1531 1533 1529 1516 1514 1511 1509 1507 1506 1505 1503 1500 1498 1495 1493 1490 1488 1485 1482 1479 1477 1474 1471 1469 1466 1464 1462 1460 1458 1457 1456 1455 1454
1498 1507 1513 1506 1499 1497 1499 1504 1511 1520 1526 1529 1534 1532 1515 1513 1510 1508 1507 1505 1503 1501 1498 1495 1492 1490 1487 1483 1480 1477 1474 1471 1468 1465 1462 1459 1456 1454 1452 1450 1449 1448 1448 1447
1498 1510 1523 1520 1515 1505 1505 1507 1512 1519 1527 1531 1534 1528 1514 1512 1510 1508 1506 1503 1501 1498 1495 1492 1489 1486 1483 1479 1475 1471 1468 1464 1461 1457 1454 1451 1448 1445 1443 1441 1441 1440 1439 1439
1496 1512 1521 1525 1520 1512 1511 1511 1511 1518 1529 1529 1525 1520 1513 1511 1509 1506 1504 1501 1498 1495 1492 1489 1485 1482 1477 1473 1469 1465 1460 1457 1453 1449 1445 1442 1439 1436 1434 1432 1431 1430 1430 1430
1498 1512 1512 1513 1510 1509 1512 1513 1513 1516 1518 1524 1519 1516 1511 1509 1507 1504 1501 1498 1495 1492 1488 1485 1480 1476 1471 1467 1462 1457 1453 1448 1444 1440 1436 1432 1429 1427 1424 1423 1422 1421 1420 1420
1502 1511 1513 1514 1512 1512 1516 1514 1513 1514 1514 1515 1515 1514 1507 1506 1504 1502 1498 1495 1491 1488 1484 1480 1475 1470 1465 1460 1454 1449 1444 1440 1435 1431 1426 1423 1419 1416 1414 1412 1411 1410 1410 1411
1507 1511 1519 1522 1515 1517 1522 1516 1514 1514 1512 1513 1516 1512 1505 1504 1501 1499 1494 1491 1487 1483 1479 1474 1469 1464 1458 1453 1447 1441 1436 1431 1426 1421 1417 1413 1409 1406 1403 1402 1401 1400 1400 1401
1506 1515 1523 1525 1522 1527 1519 1509 1509 1510 1509 1508 1508 1506 1504 1501 1498 1495 1491 1488 1483 1479 1474 1468 1463 1457 1451 1446 1440 1434 1428 1423 1417 1412 1407 1403 1400 1396 1393 1391 1390 1390 1390 1391
1501 1510 1522 1528 1526 1522 1514 1508 1508 1511 1510 1505 1505 1503 1501 1497 1494 1490 1488 1484 1480 1475 1469 1464 1457 1451 1444 1438 1432 1426 1420 1414 1409 1404 1399 1395 1391 1387 1384 1382 1380 1380 1380 1380
1505 1508 1519 1526 1524 1527 1514 1505 1504 1508 1510 1503 1502 1500 1498 1496 1496 1488 1483 1480 1475 1470 1464 1458 1451 1444 1437 1431 1425 1418 1412 1406 1401 1395 1390 1386 1382 1378 1375 1373 1371 1370 1370 1371
1510 1516 1520 1523 1525 1519 1506 1503 1505 1514 1510 1500 1499 1497 1495 1493 1491 1484 1480 1475 1470 1465 1458 1452 1445 1438 1431 1424 1418 1412 1405 1399 1394 1388 1383 1378 1374 1370 1367 1364 1363 1362 1361 1362
1511 1516 1521 1526 1525 1519 1502 1502 1505 1504 1498 1497 1496 1494 1492 1489 1485 1481 1476 1471 1465 1459 1452 1445 1438 1431 1425 1419 1412 1405 1399 1393 1387 1381 1375 1371 1366 1363 1360 1357 1355 1354 1354 1354
1507 1508 1510 1513 1511 1501 1498 1498 1498 1497 1496 1495 1493 1491 1488 1485 1481 1477 1472 1466 1460 1454 1447 1440 1433 1426 1419 1413 1407 1400 1393 1387 1381 1375 1369 1364 1360 1356 1353 1351 1349 1347 1347 1348
1501 1501 1503 1504 1499 1496 1496 1495 1495 1494 1493 1492 1491 1488 1485 1482 1478 1473 1468 1462 1455 1449 1442 1435 1428 1421 1414 1408 1402 1396 1389 1383 1376 1370 1365 1360 1355 1351 1348 1345 1343 1342 1342 1342
1496 1498 1500 1500 1495 1494 1493 1492 1492 1491 1491 1489 1488 1485 1482 1479 1474 1470 1464 1458 1451 1444 1437 1431 1424 1417 1410 1404 1397 1391 1385 1379 1373 1367 1362 1357 1352 1348 1344 1341 1340 1338 1338 1338
1491 1492 1496 1495 1489 1490 1489 1488 1489 1489 1488 1486 1484 1482 1479 1476 1471 1466 1461 1455 1448 1441 1434 1427 1420 1414 1407 1400 1394 1388 1382 1376 1370 1364 1359 1354 1350 1346 1342 1339 1337 1335 1335 1335